CAPE
187 213 262 70 91 63 56 98 78 742 1003 859 1147 1019 1269 1273 1104 1053 507 408 296 477 499 373 318 171 172 206 312 531 752 589 472 363 315 219 198 112 129 131 45 4 94
428 245 561 368 225 191 103 89 10 120 1133 1363 877 1107 1262 1167 483 340 478 439 330 257 126 99 133 126 68 61 326 467 184 224 288 291 167 141 109 122 140 105 56 98 60
351 333 676 659 501 414 351 248 28 46 189 1566 1457 1598 1394 896 693 577 632 279 433 299 343 192 421 246 470 430 513 494 180 112 115 77 113 87 63 92 166 195 144 132 171
86 315 920 769 643 641 660 691 492 252 280 1479 1643 1473 1374 1039 798 616 271 342 522 422 439 505 553 371 341 516 367 205 250 83 53 28 40 68 70 104 76 82 143 157 120
211 465 1061 1199 835 939 1043 1113 872 444 431 937 1964 1467 1470 1223 1211 964 838 886 1016 612 621 513 304 180 284 280 273 206 204 182 50 26 48 87 91 98 143 134 132 105 69
178 313 812 1460 1453 1348 1477 1638 1268 1325 1954 1962 2058 1713 1426 1375 1223 813 371 149 158 19 48 116 163 90 51 78 145 238 232 189 1 16 87 133 176 123 131 109 128 90 95
115 478 973 1542 1969 2182 2339 2611 2384 2573 2373 2128 1879 1751 1808 1614 1387 785 232 65 27 0 0 4 20 36 8 0 0 134 187 175 52 24 1 93 116 123 110 111 141 96 70
170 664 1079 1929 2213 2465 2668 2863 2786 2637 2387 2151 2229 2209 2079 1550 1025 231 0 0 0 31 68 69 1 0 0 0 30 0 0 6 63 56 30 1 8 108 121 148 64 40 3
419 691 1584 1928 2165 2250 2318 2395 2456 2407 2278 2497 2372 2190 1607 1056 104 0 0 0 0 91 220 33 0 0 0 0 0 0 0 0 0 0 11 7 15 0 2 16 110 58 5
891 1607 1699 1798 2128 2264 2439 2529 2268 2519 2476 2346 2178 1852 1281 264 3 2 9 5 22 152 93 24 0 0 0 0 0 0 0 0 0 0 0 0 0 0 0 0 4 25 54
1664 1762 1886 1932 2152 2479 2620 2608 2350 2242 2475 2360 1988 1662 807 60 33 2 27 27 263 140 50 32 3 0 0 0 0 0 0 0 0 0 0 0 0 0 0 0 0 0 12
1633 1708 1879 1926 2288 2434 2595 2456 2349 2543 2601 2131 1526 1326 346 0 17 8 70 426 304 170 51 36 20 14 0 0 0 0 0 0 0 0 0 0 0 0 0 0 0 0 0
1298 1633 1849 1983 2193 2364 2486 2526 2392 2727 2448 1702 1359 1005 116 36 205 694 649 521 432 388 192 24 24 0 0 0 0 0 0 0 0 0 0 0 0 0 0 0 0 0 0
1170 1610 2011 2159 2283 2492 2544 2516 2455 2557 2082 1430 580 63 688 768 764 539 514 450 541 502 222 8 0 0 4 0 0 0 0 0 0 0 0 0 0 0 0 0 0 0 0
436 1694 2008 2225 2311 2402 2456 2382 2377 2276 1391 480 131 307 882 647 465 465 454 418 250 72 2 0 0 0 0 0 0 0 0 0 0 0 0 0 0 0 0 0 0 0 0
329 1430 1691 1534 2386 2168 2116 2111 1720 1074 675 240 389 682 638 444 417 451 249 166 37 0 0 0 0 0 0 0 0 0 0 0 0 0 0 0 0 0 0 0 0 0 0
22 847 126 111 2264 1726 1622 1221 819 482 360 568 824 800 485 265 269 260 117 49 0 0 0 0 0 0 0 0 0 0 0 0 0 0 0 0 0 0 0 0 0 0 0
116 1233 706 2059 1982 1566 1293 875 492 561 496 535 479 443 296 147 57 15 2 0 0 0 0 0 0 0 0 0 0 0 0 0 0 0 0 0 0 0 0 0 0 0 0
1934 2177 2344 2201 1916 1423 700 167 544 541 366 208 210 17 0 0 0 0 0 0 0 0 0 0 0 0 0 0 0 0 0 0 0 0 0 0 0 0 0 0 0 0 0
2251 2231 2361 2168 1769 603 340 451 643 460 250 8 0 0 0 0 0 0 0 0 0 0 0 0 0 0 0 0 0 0 0 0 0 0 0 0 0 0 0 0 0 1 0
1977 1775 2028 2000 994 219 236 354 218 93 54 82 0 0 0 0 0 0 0 0 0 0 0 0 0 0 0 0 0 0 0 0 0 0 0 0 0 0 0 0 0 0 0
1494 1270 1223 1068 645 226 215 97 9 240 35 0 0 0 0 0 0 0 0 0 0 0 0 0 0 0 0 0 0 0 0 0 0 0 0 0 0 0 0 0 0 0 0
1222 856 676 506 373 303 141 61 63 1 0 0 0 0 0 0 0 0 0 0 0 0 0 0 0 0 0 0 0 0 0 0 0 0 0 0 0 0 0 0 0 0 0
917 692 474 286 159 21 7 4 0 0 0 0 0 0 0 0 0 0 0 0 0 0 0 0 0 0 0 0 0 0 0 0 0 0 0 0 0 0 0 0 0 0 0
469 380 280 112 0 0 0 0 0 0 0 0 0 0 0 0 0 0 0 0 0 0 0 0 0 0 0 0 0 0 0 0 0 0 0 0 0 0 0 0 0 0 0
276 114 9 0 0 0 0 0 0 0 0 0 0 0 0 0 0 0 0 0 0 0 0 0 0 0 0 0 0 0 0 0 0 0 0 0 0 0 0 0 0 0 0
CIN
-228 -247 -202 -164 -200 -200 -163 -185 -190 -101 -99 -105 -74 -67 -46 -41 -44 -53 -88 -67 -99 -59 -68 -66 -36 -40 -48 -22 -28 -31 -9 -22 -27 -10 -23 -41 -56 -60 -81 -85 -100 -108 -63
-202 -256 -198 -221 -203 -172 -203 -187 -200 -199 -94 -82 -88 -59 -55 -48 -83 -107 -84 -68 -77 -73 -83 -87 -72 -54 -22 -29 -20 -10 -37 -21 -15 -3 -2 -35 -83 -99 -97 -121 -122 -102 -85
-257 -229 -210 -221 -204 -177 -201 -230 -242 -199 -219 -62 -47 -35 -59 -82 -78 -68 -53 -64 -54 -48 -68 -47 -27 -29 -21 -20 -15 -10 -12 -17 -26 -15 -2 -9 -62 -75 -87 -106 -136 -117 -89
-415 -301 -208 -193 -203 -157 -176 -184 -221 -237 -219 -58 -21 -20 -27 -36 -49 -61 -72 -59 -54 -52 -48 -38 -21 -25 -24 -14 -19 -13 -10 -8 -7 -7 -17 -11 -16 -15 -47 -85 -107 -138 -109
-268 -258 -204 -136 -191 -166 -154 -149 -194 -227 -200 -102 -22 -43 -30 -42 -33 -34 -30 -36 -44 -39 -19 -16 -23 -21 -14 -13 -18 -18 -10 -7 -2 -10 -7 -44 -14 -10 -11 -45 -46 -82 -106
-293 -363 -240 -138 -151 -173 -142 -141 -162 -120 -58 -49 -28 -29 -35 -32 -26 -32 -43 -76 -82 -151 -115 -73 -47 -69 -85 -53 -22 -14 -9 -6 -3 -4 -5 -7 -8 -4 -8 -15 -28 -42 -34
-355 -277 -187 -124 -125 -122 -109 -90 -82 -50 -38 -42 -44 -31 -26 -27 -23 -36 -76 -179 -249 0 0 -123 -175 -151 -57 0 0 -31 -11 -6 -18 -37 -26 -19 -6 -8 -19 -16 -10 -43 -94
-359 -246 -196 -117 -118 -122 -104 -75 -52 -46 -40 -32 -23 -14 -12 -33 -52 -120 -38 0 0 -213 -133 -115 -32 0 0 0 -138 -3 0 -7 -60 -48 -77 -29 -28 -16 -14 -5 -4 -44 -10
-285 -237 -158 -125 -135 -127 -126 -108 -76 -52 -45 -23 -15 -14 -44 -80 -186 0 0 0 0 -84 -44 -183 0 0 0 0 0 0 0 0 0 0 -81 -77 -40 0 -35 -26 -8 -4 -1
-207 -162 -135 -113 -129 -132 -125 -104 -102 -55 -38 -23 -12 -29 -66 -159 -145 -50 -164 -136 -79 -68 -68 -132 0 0 0 0 0 0 0 0 0 0 0 0 0 0 0 0 -22 -12 -1
-143 -107 -130 -134 -158 -141 -115 -95 -90 -67 -30 -14 -22 -39 -107 -197 -253 -123 -124 -143 -72 -65 -66 -95 -46 0 0 0 0 0 0 0 0 0 0 0 0 0 0 0 0 0 -15
-129 -159 -169 -190 -175 -146 -98 -76 -90 -42 -25 -25 -57 -54 -141 -2 -185 -158 -146 -61 -34 -45 -90 -68 -104 -107 0 0 0 0 0 0 0 0 0 0 0 0 0 0 0 0 -1
-130 -162 -183 -198 -186 -161 -122 -90 -77 -28 -25 -47 -61 -71 -164 -162 -121 -42 -33 -39 -36 -41 -47 -122 -94 0 0 0 0 0 0 0 0 0 0 0 0 0 0 0 0 0 0
-180 -174 -176 -151 -173 -167 -147 -120 -73 -28 -33 -53 -123 -201 -65 -51 -38 -38 -39 -50 -50 -38 -43 -30 0 0 -67 0 0 0 0 0 0 0 0 0 0 0 0 0 0 0 0
-121 -110 -104 -119 -111 -116 -112 -100 -77 -46 -61 -133 -190 -112 -51 -48 -43 -37 -57 -52 -64 -74 -27 0 0 0 0 0 0 0 0 0 0 0 0 0 0 0 0 0 0 0 0
-223 -144 -84 -145 -129 -83 -107 -86 -119 -146 -155 -184 -90 -64 -61 -73 -59 -59 -90 -106 -85 0 0 0 0 0 0 0 0 0 0 0 0 0 0 0 0 0 0 0 0 0 0
-301 -186 -338 -324 -146 -101 -128 -148 -143 -179 -159 -89 -58 -75 -104 -94 -102 -133 -193 -168 0 0 0 0 0 0 0 0 0 0 0 0 0 0 0 0 0 0 0 0 0 0 0
-281 -217 -335 -193 -133 -164 -133 -143 -145 -66 -89 -86 -113 -119 -98 -110 -175 -201 -108 0 0 0 0 0 0 0 0 0 0 0 0 0 0 0 0 0 0 0 0 0 0 0 0
-152 -162 -151 -112 -114 -152 -219 -340 -238 -89 -84 -85 -140 -30 0 0 0 0 0 0 0 0 0 0 0 0 0 0 0 0 0 0 0 0 0 0 0 0 0 0 0 0 0
-151 -124 -106 -107 -147 -357 -336 -242 -138 -151 -180 -327 0 -10 0 0 0 0 0 0 0 0 0 0 0 0 0 0 0 0 0 0 0 0 0 0 0 0 0 0 0 0 0
-263 -271 -224 -187 -279 -470 -382 -271 -261 -272 -328 -232 0 0 0 0 0 0 0 0 0 0 0 0 0 0 0 0 0 0 0 0 0 0 0 0 0 0 0 0 0 0 0
-339 -362 -327 -291 -389 -418 -344 -357 -215 -249 -149 0 0 0 0 0 0 0 0 0 0 0 0 0 0 0 0 0 0 0 0 0 0 0 0 0 0 0 0 0 0 0 0
-323 -355 -387 -353 -331 -320 -359 -313 -306 -42 0 0 0 0 0 0 0 0 0 0 0 0 0 0 0 0 0 0 0 0 0 0 0 0 0 0 0 0 0 0 0 0 0
-292 -314 -341 -340 -337 -397 -368 -314 0 0 0 0 0 0 0 0 0 0 0 0 0 0 0 0 0 0 0 0 0 0 0 0 0 0 0 0 0 0 0 0 0 0 0
-333 -324 -312 -311 0 0 0 0 0 0 0 0 0 0 0 0 0 0 0 0 0 0 0 0 0 0 0 0 0 0 0 0 0 0 0 0 0 0 0 0 0 0 0
-359 -413 -278 0 0 0 0 0 0 0 0 0 0 0 0 0 0 0 0 0 0 0 0 0 0 0 0 0 0 0 0 0 0 0 0 0 0 0 0 0 0 0 0
Wind_Speed
21 20 22 24 24 22 22 21 21 20 21 17 17 12 12 10 9 12 14 10 12 12 20 23 15 13 11 7 13 18 14 15 12 8 6 12 19 23 23 21 24 21 18
20 21 22 25 25 22 21 20 21 22 20 19 16 14 13 11 11 13 12 9 12 16 22 22 20 19 20 26 23 21 24 25 21 16 16 6 13 22 22 19 20 23 24
21 20 20 24 24 22 21 21 22 23 21 19 17 16 13 13 15 13 12 10 10 16 19 19 19 21 25 26 25 22 26 28 26 12 11 13 5 14 22 6 8 17 17
10 14 18 22 24 22 20 19 20 23 21 19 18 16 14 13 13 13 11 10 8 9 12 10 20 22 25 26 25 20 21 24 28 24 5 11 12 17 23 21 20 17 20
13 14 14 20 24 20 19 19 19 20 19 17 16 15 15 14 14 14 15 12 11 13 14 21 22 23 24 25 26 21 1 1 8 14 6 3 9 16 8 30 24 18 21
12 20 13 15 22 17 15 16 17 18 17 15 13 13 14 14 15 16 18 19 19 19 21 23 23 21 22 23 23 16 6 1 5 7 5 3 9 3 7 9 29 35 32
10 16 16 19 20 15 14 14 16 16 15 14 12 12 13 14 15 16 17 17 19 19 21 23 24 25 25 25 25 24 12 6 3 9 16 10 5 2 8 3 13 31 27
18 15 16 19 19 15 14 14 16 15 15 13 13 13 13 14 15 16 16 18 19 20 21 23 24 25 26 26 26 27 28 27 25 11 29 25 22 12 3 2 2 16 11
19 17 18 19 18 19 18 16 15 15 15 15 15 15 14 13 14 14 16 17 18 20 21 23 25 26 27 27 26 28 30 30 30 30 28 24 23 19 15 10 4 2 8
22 20 21 20 20 18 16 15 15 15 14 13 14 14 14 14 14 14 14 16 18 19 22 23 25 27 27 27 27 29 31 31 30 29 29 28 24 22 18 14 11 7 1
22 21 21 20 18 16 15 15 14 14 13 14 14 13 14 16 16 15 14 16 17 20 23 23 25 27 28 26 27 30 31 32 32 31 30 30 28 26 23 20 18 15 11
16 16 17 16 15 13 13 13 13 15 16 15 16 16 16 16 14 15 16 17 19 22 24 24 25 27 28 25 27 30 31 32 33 32 31 30 28 28 28 26 24 22 19
21 13 13 13 13 13 12 12 12 14 15 15 14 14 13 13 15 16 16 19 20 22 24 26 26 28 29 26 27 28 30 32 33 32 31 31 30 31 28 28 28 26 23
6 2 10 8 9 13 12 11 10 12 11 12 12 13 13 14 14 16 18 20 21 23 25 26 28 28 29 27 28 30 32 33 33 31 30 31 31 31 30 30 30 29 27
5 10 7 0 1 7 7 8 8 9 8 9 11 11 12 13 14 16 19 21 22 23 25 26 27 28 29 30 30 31 32 32 31 31 31 31 30 31 31 31 32 32 31
13 16 20 4 3 6 4 7 8 7 7 7 9 10 11 14 15 17 19 20 22 24 26 27 27 28 29 30 30 29 29 30 32 33 34 33 31 32 33 34 34 32 31
15 18 13 3 5 6 3 1 4 4 5 6 7 9 11 14 15 15 18 22 24 25 25 24 25 26 28 30 30 30 31 32 34 34 34 34 31 33 35 37 36 35 34
12 13 6 6 6 6 7 7 10 9 5 4 8 9 12 14 14 17 19 19 20 22 23 22 23 25 28 31 33 32 32 33 33 34 35 34 34 35 39 38 37 35 35
5 9 13 10 7 6 8 8 10 8 4 7 9 11 13 16 16 18 20 22 22 23 20 20 23 26 29 34 34 33 33 34 34 34 35 36 37 40 40 38 37 37 38
9 10 11 8 4 6 8 8 8 9 9 8 9 12 14 15 17 19 22 22 21 19 19 21 24 27 30 33 35 34 33 34 35 35 36 37 39 41 41 39 38 39 39
10 10 8 5 4 5 9 11 9 7 7 9 11 13 14 16 18 19 18 18 19 19 20 22 24 26 30 31 33 34 34 35 36 37 37 38 40 42 40 38 37 39 39
9 9 9 8 7 7 9 9 8 7 8 9 11 13 15 16 17 18 18 18 19 19 20 22 24 26 28 30 33 35 36 37 38 40 40 40 42 42 40 39 41 41 38
9 9 10 10 9 9 9 9 9 8 7 9 11 13 14 15 15 16 18 19 19 19 19 20 22 25 27 29 31 34 36 36 37 37 39 41 42 42 41 40 40 39 38
9 10 10 9 8 8 8 9 8 8 8 9 11 13 14 14 14 15 16 17 17 17 17 20 22 25 27 28 28 30 33 35 36 36 38 40 42 43 43 44 42 40 39
9 10 10 9 8 8 8 7 8 8 8 9 10 12 13 13 13 14 15 16 15 15 17 19 21 23 26 27 27 29 32 34 35 36 38 42 44 46 47 46 44 42 41
9 10 10 9 7 7 7 7 7 7 8 10 11 10 13 13 14 14 14 16 14 14 15 15 18 19 21 23 26 28 28 30 33 36 40 42 44 46 47 49 48 44 42
Wind_Direction
146 132 135 146 146 141 141 151 145 146 148 142 141 116 116 111 90 25 0 44 19 22 359 338 351 348 359 171 9 343 350 343 338 323 236 221 219 221 217 212 214 207 200
144 140 141 146 158 146 147 152 160 154 147 146 140 127 125 122 139 152 153 111 46 25 356 342 321 323 330 318 333 346 341 332 335 335 325 283 305 298 217 208 206 209 206
155 142 143 154 157 155 150 156 158 154 150 146 137 142 124 119 140 149 152 130 96 35 15 322 302 309 310 307 324 345 346 333 331 349 327 326 272 327 298 253 201 199 199
105 126 143 156 166 158 152 149 153 158 154 146 148 139 139 130 129 140 140 145 124 112 83 204 295 292 302 316 334 3 3 353 336 339 273 226 300 310 302 302 303 295 242
130 143 135 157 169 154 149 152 145 144 144 139 137 118 112 112 88 83 56 77 90 92 78 18 339 320 328 319 325 279 55 334 17 265 7 260 217 212 232 281 295 312 298
86 146 125 145 163 145 135 135 135 135 133 118 97 90 88 91 71 64 42 25 28 27 22 8 359 314 317 315 303 266 241 59 38 38 43 48 345 251 234 246 290 277 283
113 136 140 142 148 134 128 124 128 124 119 110 94 84 76 69 51 41 43 42 29 21 14 7 350 343 337 332 324 323 287 81 56 59 6 65 148 129 316 268 301 292 295
147 139 137 140 139 128 123 117 120 115 114 104 103 98 80 64 47 41 39 39 34 28 14 357 352 343 341 341 347 354 346 335 327 288 8 26 31 56 80 251 13 331 327
150 151 140 141 135 137 133 124 120 115 113 108 106 97 81 63 50 39 41 32 23 18 12 3 354 350 351 350 358 351 345 345 349 349 9 25 25 32 38 53 101 168 347
148 139 140 141 139 136 124 115 114 115 111 102 98 90 86 71 63 52 28 9 2 6 7 2 356 351 349 354 356 353 348 346 343 345 347 1 16 15 23 38 37 39 106
139 141 137 136 134 127 121 114 109 111 107 105 99 92 86 89 89 79 50 2 1 0 2 360 354 347 346 355 355 353 349 347 342 345 346 344 347 354 359 7 9 14 18
153 136 134 129 125 121 120 117 111 119 118 109 107 102 95 94 92 77 59 26 6 360 356 353 349 344 346 360 353 350 347 345 341 344 346 343 346 344 342 342 343 347 352
144 146 137 132 130 130 127 123 119 121 117 111 101 94 84 71 59 54 40 15 6 357 351 347 347 344 341 354 349 349 346 345 343 347 346 345 343 338 339 336 335 332 332
307 143 135 140 129 137 137 127 124 125 115 106 96 82 66 54 47 27 14 10 6 358 351 346 344 343 341 350 348 346 343 343 345 348 348 344 342 342 341 338 334 331 330
112 277 137 178 190 143 122 121 124 130 119 104 95 81 58 40 26 12 6 6 1 357 353 352 348 347 347 343 342 343 343 345 348 349 346 346 345 340 339 337 331 328 326
154 163 161 119 186 172 124 134 141 142 123 94 88 78 49 28 14 3 1 360 355 354 349 349 351 351 351 349 352 354 352 347 344 341 339 338 341 336 331 326 324 329 330
159 166 162 113 144 142 81 282 269 117 108 101 72 57 46 36 30 27 8 353 346 349 345 356 357 357 356 354 354 352 349 345 341 338 337 336 339 336 330 325 323 321 321
162 169 169 127 104 80 63 63 45 345 19 333 55 36 37 33 41 25 16 19 11 359 349 358 5 4 359 352 348 350 351 349 347 345 342 340 338 333 327 325 323 322 318
143 141 146 133 112 89 54 38 23 89 65 74 39 26 23 14 18 17 14 7 3 357 6 11 4 359 353 347 350 352 351 349 348 348 346 343 338 332 328 330 328 323 317
124 133 134 124 102 42 57 50 65 77 77 35 26 20 13 14 11 7 2 4 10 17 20 11 5 0 354 350 350 352 354 352 351 350 348 345 340 335 334 334 332 327 324
106 104 105 107 57 91 91 85 77 72 57 54 34 22 19 10 7 5 15 16 15 17 11 7 4 2 358 358 0 1 1 358 355 352 349 347 342 339 338 336 334 328 324
74 68 69 65 47 60 78 74 77 52 58 39 25 20 12 11 16 20 18 16 14 14 10 10 11 11 10 9 8 8 8 6 3 357 354 352 347 344 342 339 331 328 327
73 62 58 61 60 72 84 87 86 77 52 36 27 18 17 13 23 20 16 13 17 15 15 17 14 9 9 9 9 6 5 5 3 4 2 359 356 353 349 343 340 336 329
62 54 55 57 65 68 76 82 78 75 61 42 33 26 20 21 29 24 22 21 18 19 21 16 9 5 3 4 3 3 4 3 2 2 1 358 357 355 351 346 341 337 332
51 46 48 62 76 75 65 54 76 70 56 43 35 25 21 19 17 17 17 20 22 23 12 5 4 2 359 1 3 360 356 358 359 358 357 355 354 353 352 349 344 339 333
64 57 60 65 65 60 64 56 44 41 39 26 18 22 17 12 9 11 9 6 16 18 14 15 10 5 1 0 358 357 357 357 357 356 355 355 354 352 351 350 346 343 336